Regional Weather Roundup
Issued by NWS

Home | Current Version | Previous Version | Graphics & Text | Print | Product List | Glossary On
Versions: 1 2 3 4 5 6 7 8 9 10 11 12 13 14 15 16 17 18 19 20 21 22 23 24 25 26 27 28 29 30 31 32 33 34 35 36 37 38 39 40 41 42 43 44 45 46 47 48 49 50
000
ASUS43 KFSD 250402
RWRSD

WEATHER ROUNDUP FOR SOUTH DAKOTA
NATIONAL WEATHER SERVICE SIOUX FALLS SD
1100 PM CDT THU APR 24 2014

NOTE: "FAIR" INDICATES FEW OR NO CLOUDS BELOW 12,000 FEET WITH NO
SIGNIFICANT WEATHER AND/OR OBSTRUCTIONS TO VISIBILITY.


SDZ001>005-009-010-012>017-250500-
NORTHWEST AND NORTH CENTRAL SOUTH DAKOTA

CITY           SKY/WX    TMP DP  RH WIND       PRES   REMARKS
BUFFALO          N/A     50  27  40 NW14      29.72R
FAITH            N/A     52  25  35 N3        29.76R
MOBRIDGE       CLOUDY    42  24  49 N3        29.74R
$$

SDZ012>016-024>037-041>051-057-063-072>074-250500-
SOUTHWEST AND SOUTH CENTRAL SOUTH DAKOTA

CITY           SKY/WX    TMP DP  RH WIND       PRES   REMARKS
RAPID CTY ARPT MOCLDY    46  28  49 N3        29.80R
PIERRE         CLOUDY    50  28  42 W5        29.77R
CUSTER         CLOUDY    45  23  42 NE5       29.84R
ELLSWORTH AFB  MOCLDY    52  29  40 E2        29.80R
PHILIP         CLOUDY    50  32  50 CALM      29.78S
PINE RIDGE     CLOUDY    49  29  46 E9        29.79F
WINNER         FAIR      51  24  34 S3        29.80R
$$

SDZ004>011-016>023-039-040-250500-
NORTHEAST SOUTH DAKOTA

CITY           SKY/WX    TMP DP  RH WIND       PRES   REMARKS
ABERDEEN       PTCLDY    44  29  55 N12       29.75R
WATERTOWN      CLEAR     41  39  93 S8        29.73S
SISSETON         N/A     40  39  97 W6        29.72R
$$

SDZ017-020-022-023-036>040-048>070-250500-
SOUTHEAST SOUTH DAKOTA

CITY           SKY/WX    TMP DP  RH WIND       PRES   REMARKS
SIOUX FALLS    CLEAR     45  33  63 W3        29.76R
HURON          CLEAR     45  21  38 SW7       29.75R
CHAMBERLAIN      N/A     52  22  30 NW6       29.79R
MITCHELL       PTCLDY    50  24  36 W6        29.77R
YANKTON        CLEAR     54  25  32 NW7       29.79S
$$

ABBREVIATIONS USED IN REMARKS
   TC - TEMPERATURE IN CELSIUS
  WCI - WIND CHILL INDEX
   HX - HEAT INDEX
  VSB - VISIBILITY




USA.gov is the U.S. government's official web portal to all federal, state and local government web resources and services.